Location: Cottbus
(51.7000°N, 14.3000°E)
Time: 02:50:43
(UTC+02:00)

ISS - Visible Passes

Search period start: 18 May 2021 00:00
Search period end: 28 May 2021 00:00
Orbit: 417 x 422 km, 51.6° (Epoch: 17 May)

Date Brightness Start Highest point End Pass type
(mag) Time Alt. Az. Time Alt. Az. Time Alt. Az.
18 May -3.9 01:19:34 10° W 01:22:53 69° SSW 01:22:53 69° SSW visible
18 May -3.9 22:55:17 10° WSW 22:58:39 82° S 23:02:03 10° E visible
19 May -3.9 00:32:06 10° W 00:35:29 81° S 00:36:27 43° ESE visible
19 May -1.3 02:09:02 10° W 02:09:22 12° W 02:09:22 12° W visible
19 May -3.8 22:07:51 10° WSW 22:11:13 70° SSE 22:14:34 10° E visible
19 May -3.9 23:44:38 10° W 23:48:01 89° S 23:50:16 20° E visible
20 May -2.3 01:21:29 10° W 01:23:12 25° W 01:23:12 25° W visible
20 May -3.8 22:57:09 10° W 23:00:33 88° N 23:03:55 10° E visible
21 May -3.6 00:33:59 10° W 00:37:06 53° SW 00:37:06 53° SW visible
21 May -3.8 22:09:40 10° W 22:13:03 89° SSW 22:16:26 10° E visible
21 May -3.9 23:46:30 10° W 23:49:52 69° SSW 23:51:03 36° ESE visible
22 May -1.3 01:23:36 10° W 01:23:59 12° W 01:23:59 12° W visible
22 May -3.9 22:59:01 10° W 23:02:24 81° S 23:05:02 16° ESE visible
23 May -2.3 00:35:57 10° W 00:37:58 25° WSW 00:37:58 25° WSW visible
23 May -3.8 22:11:32 10° W 22:14:55 89° S 22:18:19 10° E visible
23 May -3.3 23:48:23 10° W 23:51:36 41° SSW 23:51:58 39° S visible
24 May -3.6 23:00:52 10° W 23:04:11 54° SSW 23:06:00 23° SE visible
25 May -1.3 00:38:21 10° WSW 00:38:57 12° WSW 00:38:57 12° WSW visible
25 May -3.7 22:13:23 10° W 22:16:44 68° SSW 22:20:04 10° ESE visible
25 May -2.2 23:50:29 10° W 23:53:00 22° SW 23:53:00 22° SW visible
26 May -2.7 23:02:49 10° W 23:05:50 30° SSW 23:07:05 23° S visible
27 May -3.1 22:15:15 10° W 22:18:26 41° SSW 22:21:12 13° SE visible
27 May -1.2 23:53:44 10° WSW 23:54:08 10° SW 23:54:08 10° SW visible
